• In Russia
  • List of Countries
  • For 7 days
  • Water Temperature
  • Weather Map
  • Weather Widgets
  • user-avatar
    Login

    Hourly Weather Zaranj

    Today, 24 January, Friday

    Time Temperature Precipitation Wind Pressure Humidity
    00:00 +13°C° 0.5 mm 8 mps 717 mmHg 72%
    01:00 +12°C° 0.5 mm 9 mps 717 mmHg 78%
    02:00 +12°C° 0.6 mm 7 mps 717 mmHg 78%
    03:00 +12°C° 0.6 mm 5 mps 717 mmHg 79%
    04:00 +12°C° 0 mm 3 mps 717 mmHg 81%
    05:00 +12°C° 0.8 mm 3 mps 718 mmHg 82%
    06:00 +12°C° 0.8 mm 4 mps 718 mmHg 83%
    07:00 +12°C° 0.8 mm 4 mps 718 mmHg 85%
    08:00 +12°C° 0.2 mm 4 mps 719 mmHg 83%
    09:00 +13°C° 0.2 mm 3 mps 719 mmHg 82%
    10:00 +13°C° 0 mm 3 mps 720 mmHg 78%
    11:00 +13°C° 0.3 mm 3 mps 720 mmHg 77%
    12:00 +14°C° 0.3 mm 4 mps 719 mmHg 77%
    13:00 +14°C° 0.3 mm 4 mps 719 mmHg 77%
    14:00 +13°C° 0.3 mm 5 mps 719 mmHg 78%
    15:00 +13°C° 0.3 mm 5 mps 718 mmHg 79%
    16:00 +11°C° 0.3 mm 6 mps 718 mmHg 81%
    17:00 +12°C° 0 mm 5 mps 719 mmHg 80%
    18:00 +12°C° 0 mm 5 mps 719 mmHg 80%
    19:00 +12°C° 0 mm 4 mps 719 mmHg 80%
    20:00 +12°C° 0 mm 4 mps 720 mmHg 79%
    21:00 +11°C° 0 mm 4 mps 720 mmHg 78%
    22:00 +11°C° 0 mm 4 mps 720 mmHg 77%
    23:00 +11°C° 0 mm 3 mps 720 mmHg 78%

    Tomorrow, 25 January, Saturday

    Time Temperature Precipitation Wind Pressure Humidity
    00:00 +11°C° 0 mm 3 mps 720 mmHg 79%
    01:00 +11°C° 0 mm 3 mps 720 mmHg 80%
    02:00 +10°C° 0 mm 3 mps 720 mmHg 81%
    03:00 +10°C° 0 mm 3 mps 720 mmHg 81%
    04:00 +10°C° 0 mm 3 mps 720 mmHg 81%
    05:00 +9°C° 0 mm 3 mps 720 mmHg 82%
    06:00 +9°C° 0 mm 3 mps 721 mmHg 82%
    07:00 +9°C° 0 mm 3 mps 721 mmHg 82%
    08:00 +10°C° 0 mm 3 mps 721 mmHg 77%
    09:00 +11°C° 0 mm 3 mps 722 mmHg 71%
    10:00 +12°C° 0 mm 3 mps 722 mmHg 66%
    11:00 +13°C° 0 mm 3 mps 722 mmHg 62%
    12:00 +14°C° 0 mm 3 mps 721 mmHg 58%
    13:00 +14°C° 0 mm 3 mps 720 mmHg 54%
    14:00 +16°C° 0 mm 3 mps 720 mmHg 53%
    15:00 +16°C° 0 mm 3 mps 720 mmHg 52%
    16:00 +16°C° 0 mm 3 mps 720 mmHg 50%
    17:00 +16°C° 0 mm 3 mps 720 mmHg 53%
    18:00 +14°C° 0 mm 3 mps 720 mmHg 56%
    19:00 +13°C° 0 mm 3 mps 720 mmHg 59%
    20:00 +13°C° 0 mm 3 mps 721 mmHg 60%
    21:00 +12°C° 0 mm 3 mps 721 mmHg 61%
    22:00 +12°C° 0 mm 3 mps 721 mmHg 63%
    23:00 +12°C° 0 mm 4 mps 721 mmHg 64%

    Day after tomorrow, 26 January, Sunday

    Time Temperature Precipitation Wind Pressure Humidity
    00:00 +12°C° 0 mm 5 mps 721 mmHg 66%
    01:00 +10°C° 0 mm 6 mps 720 mmHg 67%
    02:00 +10°C° 0 mm 6 mps 720 mmHg 67%
    03:00 +9°C° 0 mm 7 mps 720 mmHg 67%
    04:00 +8°C° 0 mm 7 mps 720 mmHg 68%
    05:00 +8°C° 0 mm 7 mps 720 mmHg 68%
    06:00 +8°C° 0 mm 7 mps 720 mmHg 68%
    07:00 +8°C° 0 mm 6 mps 720 mmHg 69%
    08:00 +8°C° 0 mm 6 mps 720 mmHg 68%
    09:00 +8°C° 0 mm 6 mps 721 mmHg 67%
    10:00 +8°C° 0 mm 6 mps 721 mmHg 66%
    11:00 +9°C° 0.1 mm 6 mps 720 mmHg 65%
    12:00 +9°C° 0.1 mm 6 mps 719 mmHg 64%
    13:00 +10°C° 0.1 mm 6 mps 719 mmHg 63%
    14:00 +10°C° 0 mm 6 mps 719 mmHg 62%
    15:00 +10°C° 0 mm 6 mps 718 mmHg 61%
    16:00 +10°C° 0 mm 6 mps 718 mmHg 60%
    17:00 +10°C° 0.2 mm 7 mps 718 mmHg 65%
    18:00 +9°C° 0.2 mm 7 mps 719 mmHg 71%
    19:00 +7°C° 0.2 mm 8 mps 719 mmHg 77%
    20:00 +8°C° 0.7 mm 7 mps 719 mmHg 78%
    21:00 +8°C° 0.7 mm 6 mps 719 mmHg 78%
    22:00 +8°C° 0.7 mm 5 mps 720 mmHg 79%
    23:00 +8°C° 0 mm 5 mps 720 mmHg 74%

    27 January, Monday

    Time Temperature Precipitation Wind Pressure Humidity
    00:00 +8°C° 0 mm 6 mps 719 mmHg 69%
    01:00 +8°C° 0 mm 6 mps 719 mmHg 64%
    02:00 +8°C° 0 mm 6 mps 719 mmHg 63%
    03:00 +7°C° 0 mm 6 mps 719 mmHg 63%
    04:00 +6°C° 0 mm 7 mps 719 mmHg 63%
    05:00 +7°C° 0 mm 6 mps 719 mmHg 64%
    06:00 +7°C° 0 mm 6 mps 720 mmHg 64%
    07:00 +5°C° 0 mm 6 mps 720 mmHg 65%
    08:00 +6°C° 0 mm 7 mps 721 mmHg 60%
    09:00 +7°C° 0 mm 8 mps 721 mmHg 56%
    10:00 +8°C° 0 mm 9 mps 722 mmHg 51%
    11:00 +10°C° 0 mm 9 mps 721 mmHg 47%
    12:00 +11°C° 0 mm 10 mps 721 mmHg 43%
    13:00 +11°C° 0 mm 10 mps 720 mmHg 40%
    14:00 +11°C° 0 mm 10 mps 720 mmHg 39%
    15:00 +11°C° 0 mm 10 mps 720 mmHg 38%
    16:00 +11°C° 0 mm 10 mps 720 mmHg 37%
    17:00 +9°C° 0 mm 10 mps 720 mmHg 39%
    18:00 +8°C° 0 mm 10 mps 721 mmHg 42%
    19:00 +8°C° 0 mm 10 mps 721 mmHg 45%
    20:00 +7°C° 0 mm 11 mps 721 mmHg 47%
    21:00 +7°C° 0 mm 11 mps 721 mmHg 49%
    22:00 +5°C° 0 mm 12 mps 722 mmHg 52%
    23:00 +5°C° 0 mm 12 mps 722 mmHg 53%

    28 January, Tuesday

    Time Temperature Precipitation Wind Pressure Humidity
    00:00 +4°C° 0 mm 12 mps 721 mmHg 54%
    01:00 +4°C° 0 mm 12 mps 721 mmHg 56%
    02:00 +3°C° 0 mm 12 mps 721 mmHg 57%
    03:00 +3°C° 0 mm 12 mps 721 mmHg 58%
    04:00 +2°C° 0 mm 12 mps 721 mmHg 58%
    05:00 +2°C° 0 mm 12 mps 722 mmHg 60%
    06:00 +2°C° 0 mm 12 mps 722 mmHg 61%
    07:00 +2°C° 0 mm 12 mps 722 mmHg 62%
    08:00 +3°C° 0 mm 12 mps 722 mmHg 59%
    09:00 +3°C° 0 mm 12 mps 723 mmHg 55%
    10:00 +4°C° 0 mm 13 mps 723 mmHg 52%
    11:00 +5°C° 0 mm 13 mps 722 mmHg 49%
    12:00 +7°C° 0 mm 13 mps 722 mmHg 47%
    13:00 +8°C° 0 mm 13 mps 721 mmHg 44%
    14:00 +8°C° 0 mm 13 mps 721 mmHg 44%
    15:00 +8°C° 0 mm 13 mps 721 mmHg 44%
    16:00 +8°C° 0 mm 12 mps 721 mmHg 44%
    17:00 +7°C° 0 mm 12 mps 721 mmHg 45%
    18:00 +5°C° 0 mm 12 mps 721 mmHg 47%
    19:00 +5°C° 0 mm 12 mps 721 mmHg 48%
    20:00 +4°C° 0 mm 11 mps 722 mmHg 49%
    21:00 +4°C° 0 mm 11 mps 722 mmHg 50%
    22:00 +5°C° 0 mm 10 mps 722 mmHg 50%
    23:00 +3°C° 0 mm 9 mps 722 mmHg 52%

    29 January, Wednesday

    Time Temperature Precipitation Wind Pressure Humidity
    00:00 +3°C° 0 mm 9 mps 722 mmHg 53%
    01:00 +4°C° 0 mm 8 mps 721 mmHg 54%
    02:00 +4°C° 0 mm 7 mps 721 mmHg 55%
    03:00 +3°C° 0 mm 7 mps 721 mmHg 56%
    04:00 +3°C° 0 mm 7 mps 721 mmHg 58%
    05:00 +3°C° 0 mm 6 mps 722 mmHg 58%
    06:00 +3°C° 0 mm 6 mps 722 mmHg 58%
    07:00 +3°C° 0 mm 5 mps 722 mmHg 58%
    08:00 +5°C° 0 mm 5 mps 723 mmHg 54%
    09:00 +6°C° 0 mm 5 mps 723 mmHg 49%
    10:00 +7°C° 0 mm 5 mps 723 mmHg 45%
    11:00 +8°C° 0 mm 5 mps 723 mmHg 42%
    12:00 +10°C° 0 mm 4 mps 722 mmHg 39%
    13:00 +10°C° 0 mm 3 mps 722 mmHg 36%
    14:00 +11°C° 0 mm 3 mps 722 mmHg 35%
    15:00 +11°C° 0 mm 3 mps 722 mmHg 35%
    16:00 +11°C° 0 mm 3 mps 721 mmHg 34%
    17:00 +10°C° 0 mm 2 mps 722 mmHg 36%
    18:00 +10°C° 0 mm 2 mps 722 mmHg 39%
    19:00 +10°C° 0 mm 1 mps 722 mmHg 42%
    20:00 +9°C° 0 mm 1 mps 722 mmHg 42%
    21:00 +9°C° 0 mm 1 mps 723 mmHg 42%
    22:00 +9°C° 0 mm 1 mps 723 mmHg 42%
    23:00 +8°C° 0 mm 1 mps 723 mmHg 44%
    Show more